Weather History for Albany, NY

Change the Weather History Date:

Sunday, January 27, 2013

  Actual Average Record
Temperature  
Mean Temperature 16 °F 23 °F  
Max Temperature 27 °F 31 °F 62 °F (1974)
Min Temperature 4 °F 14 °F -23 °F (1994)
Degree Days  
Heating Degree Days 49 42  
Month to date heating degree days 1096 1150  
Since 1 July heating degree days 3358 3685  
Cooling Degree Days 0 0  
Month to date cooling degree days 0 0  
Year to date cooling degree days 0 0  
Moisture  
Dew Point 1 °F    
Average Humidity 62    
Maximum Humidity 91    
Minimum Humidity 32    
Precipitation  
Precipitation 0.00 in 0.08 in 1.31 in (1880)
Month to date precipitation 0.56 2.26  
Year to date precipitation 0.56 2.26  
Snow  
Snow 0.00 in 0.50 in 9.30 in (1963)
Month to date snowfall 4.6 15.5  
Since 1 July snowfall 18.0 32.0  
Snow Depth 0.00 in    
Sea Level Pressure  
Sea Level Pressure 30.48 in    
Wind  
Wind Speed 4 mph (NW)    
Max Wind Speed 14 mph    
Max Gust Speed 16 mph    
Visibility 10 miles    
Events      
T = Trace of Precipitation, MM = Missing Value Source: NWS Daily Summary

Daily Weather History Graph

Daily Weather History Graph

Search for Another Location

Airport:

Trip Planner

Search our weather history database for the weather conditions in past years. The results will help you decide how hot, cold, wet, or windy it might be!

Date:

Astronomy

Jan. 27, 2013 Rise Set
Actual Time 7:14 AM EST 5:02 PM EST
Civil Twilight 6:44 AM EST 5:32 PM EST
Nautical Twilight 6:09 AM EST 6:06 PM EST
Astronomical Twilight 5:36 AM EST 6:40 PM EST
Moon 5:56 PM EST (1/27) 7:03 AM EST (1/27)
Length of Visible Light 10h 48m
Length of Day
9h 47m
Full, 100% of the Moon is Illuminated
Jan 27
Full
Feb 3
Last Quarter
Feb 10
New
Feb 17
First Quarter
Feb 25
Full

Hourly Weather History & Observations

Time (EST) Temp. Windchill Dew Point Humidity Pressure Visibility Wind Dir Wind Speed Gust Speed Precip Events Conditions
12:51 AM 8.1 °F -0.5 °F 1.0 °F 73% 30.37 in 10.0 mi NW 4.6 mph - N/A   Partly Cloudy
1:51 AM 8.1 °F - 1.9 °F 76% 30.38 in 10.0 mi Calm Calm - N/A   Clear
2:51 AM 5.0 °F -2.1 °F 1.0 °F 84% 30.40 in 10.0 mi ENE 3.5 mph - N/A   Clear
3:51 AM 10.9 °F 0.2 °F 5.0 °F 77% 30.40 in 10.0 mi NW 6.9 mph - N/A   Clear
4:51 AM 9.0 °F 2.4 °F 3.0 °F 77% 30.41 in 10.0 mi North 3.5 mph - N/A   Clear
5:51 AM 3.9 °F - 1.0 °F 88% 30.44 in 10.0 mi Calm Calm - N/A   Clear
6:51 AM 5.0 °F - 1.9 °F 87% 30.47 in 10.0 mi Calm Calm - N/A   Clear
7:51 AM 8.1 °F -2.0 °F 3.0 °F 80% 30.49 in 10.0 mi WNW 5.8 mph - N/A   Partly Cloudy
8:51 AM 14.0 °F 2.9 °F 5.0 °F 67% 30.50 in 10.0 mi NW 8.1 mph - N/A   Partly Cloudy
9:51 AM 17.1 °F 5.8 °F 1.9 °F 52% 30.51 in 10.0 mi WNW 9.2 mph - N/A   Clear
10:51 AM 19.9 °F 10.1 °F 1.9 °F 46% 30.54 in 10.0 mi NW 8.1 mph - N/A   Clear
11:51 AM 21.9 °F 14.5 °F 1.0 °F 40% 30.52 in 10.0 mi NW 5.8 mph - N/A   Clear
12:51 PM 24.8 °F 16.9 °F 1.4 °F 36% 30.48 in 10.0 mi WNW 6.9 mph - N/A   Partly Cloudy
1:51 PM 25.0 °F 20.7 °F -2.0 °F 31% 30.49 in 10.0 mi Variable 3.5 mph - N/A   Partly Cloudy
2:51 PM 26.1 °F 21.9 °F -0.0 °F 32% 30.48 in 10.0 mi West 3.5 mph - N/A   Partly Cloudy
3:51 PM 26.1 °F 16.2 °F -0.0 °F 32% 30.50 in 10.0 mi West 10.4 mph - N/A   Partly Cloudy
4:51 PM 23.0 °F 14.7 °F -2.0 °F 34% 30.51 in 10.0 mi WNW 6.9 mph - N/A   Partly Cloudy
5:51 PM 21.0 °F 12.4 °F -2.0 °F 36% 30.52 in 10.0 mi WNW 6.9 mph - N/A   Partly Cloudy
6:51 PM 19.0 °F 13.9 °F -0.9 °F 42% 30.53 in 10.0 mi WNW 3.5 mph - N/A   Partly Cloudy
7:51 PM 19.0 °F 12.3 °F -0.0 °F 43% 30.51 in 10.0 mi West 4.6 mph - N/A   Partly Cloudy
8:51 PM 17.1 °F - -0.0 °F 47% 30.50 in 10.0 mi Calm Calm - N/A   Partly Cloudy
9:51 PM 18.0 °F - 1.0 °F 48% 30.51 in 10.0 mi Calm Calm - N/A   Scattered Clouds
10:51 PM 16.0 °F - 3.0 °F 57% 30.51 in 10.0 mi Calm Calm - N/A   Mostly Cloudy
11:51 PM 16.0 °F - 3.9 °F 59% 30.49 in 10.0 mi Calm Calm - N/A   Mostly Cloudy